Temp
-0 2 4 6 8 10 10 10 10 11 12 12 11 11 11 11 11 10 10 10 10 10 10 10 10 10 10 10 10 10 11 11 11 10 10 11 10 10 10 10 9 9 9
-3 -0 1 4 6 9 9 10 10 10 10 12 12 11 11 11 11 11 10 10 10 10 10 10 10 10 10 10 10 10 11 11 11 10 11 11 11 10 10 10 10 9 9
-5 -3 -1 2 5 8 8 9 10 10 10 10 11 11 11 11 11 11 11 11 10 10 10 10 10 10 10 10 10 10 10 11 11 11 11 11 11 10 10 10 9 9 9
-5 -3 -1 1 3 6 7 7 9 9 10 10 10 10 11 11 11 11 11 10 11 11 10 10 10 10 10 10 10 10 10 10 11 11 11 11 11 11 10 10 10 9 9
-6 -5 -3 -0 0 3 5 4 8 8 9 9 9 9 10 11 11 11 11 11 11 11 11 11 10 10 11 11 11 10 10 10 10 10 10 10 10 11 10 10 10 9 9
-7 -6 -4 -3 0 1 5 6 8 7 8 9 9 9 9 10 10 11 11 11 11 11 11 11 11 11 11 11 10 11 11 10 10 10 10 10 11 11 10 10 10 9 9
-8 -6 -5 -3 -2 -0 1 4 5 6 7 8 8 9 9 9 9 9 9 11 11 11 11 11 11 11 11 11 11 11 10 10 10 11 11 11 11 11 11 10 10 10 8
-9 -8 -6 -6 -4 -2 -0 2 4 5 7 6 8 8 8 8 9 9 9 9 9 10 10 11 11 11 12 11 11 10 10 10 10 10 10 10 11 11 11 10 10 10 8
-10 -9 -9 -7 -5 -4 -2 -1 0 1 4 5 7 7 8 7 8 8 8 9 9 9 9 10 10 10 11 12 11 11 10 10 10 10 10 10 11 11 10 10 9 9 8
-10 -10 -10 -9 -7 -6 -5 -3 -2 -1 0 2 3 3 5 6 7 8 7 8 8 9 9 9 10 9 10 11 11 11 11 11 10 11 10 10 10 10 9 9 9 9 8
-10 -10 -10 -9 -8 -7 -6 -5 -4 -3 -2 -1 -0 1 1 3 5 7 8 8 8 8 8 9 9 9 9 10 11 11 11 11 11 11 10 10 10 10 9 9 9 9 8
-11 -10 -10 -10 -9 -8 -7 -6 -6 -5 -4 -3 -3 -2 -1 0 1 3 5 7 8 8 8 8 8 8 9 9 10 10 10 10 10 10 10 10 10 9 9 9 9 9 9
-11 -11 -10 -10 -10 -9 -9 -8 -7 -7 -6 -5 -4 -4 -3 -2 -1 -0 2 4 6 6 7 8 8 8 8 8 9 9 9 9 8 8 10 10 10 10 9 9 8 7 8
-12 -11 -11 -11 -10 -10 -10 -9 -9 -9 -9 -8 -7 -6 -6 -4 -3 -2 -1 0 1 2 4 5 6 7 7 8 8 8 9 9 9 9 9 9 9 8 9 9 8 7 7
-12 -12 -12 -11 -11 -11 -10 -10 -10 -10 -10 -10 -9 -9 -8 -7 -6 -6 -4 -2 -1 -0 1 2 2 3 4 6 6 8 8 8 8 8 9 9 8 8 8 8 8 7 6
-12 -12 -12 -12 -11 -11 -11 -11 -11 -10 -10 -10 -10 -10 -10 -9 -8 -6 -4 -3 -2 -1 -1 0 1 2 2 3 4 5 6 7 7 7 8 8 8 7 7 7 6 6 6
-12 -12 -12 -12 -12 -12 -12 -12 -11 -11 -10 -10 -10 -11 -11 -10 -9 -8 -6 -5 -4 -3 -2 -1 -1 -0 -0 -0 1 1 2 2 3 5 6 6 6 6 6 5 5 5 5
-12 -13 -13 -12 -13 -13 -12 -12 -12 -12 -11 -11 -11 -10 -10 -9 -9 -8 -8 -7 -6 -5 -4 -4 -3 -3 -3 -2 -2 -1 -0 0 2 2 2 3 3 4 4 4 4 4 4
-12 -13 -13 -13 -13 -13 -13 -13 -13 -13 -13 -12 -12 -12 -11 -11 -10 -9 -9 -8 -8 -7 -7 -6 -6 -6 -5 -4 -4 -4 -3 -2 -1 -1 0 0 1 1 1 1 0 0 0
-13 -13 -13 -13 -13 -13 -13 -13 -13 -13 -13 -13 -13 -13 -13 -12 -11 -10 -10 -10 -10 -9 -9 -8 -8 -8 -7 -7 -6 -6 -5 -5 -4 -4 -3 -3 -3 -2 -2 -2 -2 -2 -2
-13 -13 -13 -13 -13 -14 -14 -14 -14 -14 -14 -14 -14 -14 -15 -13 -13 -12 -12 -11 -11 -11 -11 -10 -10 -9 -9 -9 -8 -8 -7 -7 -7 -6 -6 -5 -5 -4 -4 -4 -4 -4 -4
-14 -14 -14 -14 -14 -14 -15 -15 -15 -15 -15 -14 -14 -14 -14 -14 -14 -13 -13 -13 -12 -12 -12 -12 -11 -11 -10 -10 -10 -9 -9 -9 -8 -8 -8 -8 -7 -7 -7 -7 -6 -7 -7
-14 -14 -15 -15 -15 -15 -15 -16 -16 -16 -15 -15 -15 -15 -15 -15 -14 -14 -14 -14 -13 -13 -13 -13 -12 -12 -12 -11 -11 -10 -10 -10 -10 -10 -9 -9 -9 -9 -9 -9 -9 -9 -9
-15 -15 -15 -15 -16 -16 -16 -17 -16 -16 -17 -17 -17 -16 -15 -15 -15 -15 -15 -15 -15 -14 -14 -13 -13 -13 -13 -13 -12 -12 -12 -11 -11 -11 -11 -11 -11 -11 -11 -11 -10 -10 -10
-15 -16 -16 -16 -17 -17 -17 -17 -17 -18 -17 -17 -18 -17 -17 -16 -16 -16 -16 -16 -15 -15 -15 -15 -14 -14 -14 -14 -14 -13 -13 -13 -12 -12 -12 -12 -12 -12 -12 -12 -12 -12 -11
-17 -17 -16 -17 -17 -17 -17 -18 -18 -18 -17 -17 -17 -17 -17 -17 -17 -16 -16 -16 -16 -16 -16 -16 -15 -15 -15 -15 -14 -14 -14 -14 -14 -13 -13 -13 -13 -13 -13 -13 -13 -13 -13
Height
1412 1412 1411 1413 1417 1423 1427 1440 1447 1456 1461 1467 1473 1479 1485 1492 1499 1504 1511 1516 1521 1527 1531 1535 1539 1544 1549 1552 1556 1559 1561 1564 1568 1569 1571 1574 1576 1579 1581 1583 1584 1586 1587
1419 1416 1416 1416 1420 1421 1426 1436 1443 1451 1456 1461 1468 1474 1478 1486 1492 1498 1504 1509 1515 1520 1525 1530 1534 1539 1544 1548 1552 1554 1557 1560 1564 1566 1568 1571 1573 1576 1579 1580 1582 1583 1584
1420 1424 1421 1413 1415 1419 1427 1427 1437 1444 1450 1454 1462 1466 1471 1478 1485 1491 1497 1503 1507 1513 1518 1524 1528 1533 1537 1542 1546 1550 1553 1556 1560 1563 1565 1567 1569 1573 1575 1577 1579 1580 1581
1420 1417 1414 1413 1414 1416 1417 1424 1428 1434 1441 1448 1452 1459 1464 1471 1478 1484 1490 1495 1500 1506 1511 1516 1521 1526 1530 1536 1540 1545 1549 1552 1555 1558 1561 1563 1566 1569 1571 1573 1575 1576 1577
1430 1424 1416 1414 1416 1416 1420 1423 1423 1427 1433 1438 1445 1451 1458 1464 1470 1475 1482 1487 1492 1498 1503 1508 1513 1518 1523 1529 1534 1538 1543 1547 1550 1553 1555 1558 1560 1563 1565 1568 1570 1572 1573
1432 1429 1419 1416 1412 1415 1416 1420 1418 1423 1429 1426 1437 1444 1450 1457 1463 1468 1474 1479 1484 1489 1494 1500 1505 1510 1515 1521 1526 1532 1536 1540 1543 1546 1549 1551 1554 1557 1560 1563 1565 1566 1568
1436 1427 1425 1415 1415 1417 1417 1418 1422 1421 1422 1425 1431 1438 1441 1448 1452 1459 1466 1471 1476 1480 1486 1491 1496 1501 1506 1512 1517 1523 1528 1533 1536 1540 1542 1544 1548 1551 1555 1556 1558 1559 1561
1433 1430 1424 1425 1421 1417 1416 1414 1416 1418 1419 1425 1428 1434 1438 1440 1447 1451 1457 1463 1467 1471 1476 1482 1486 1492 1495 1502 1508 1513 1517 1522 1527 1531 1534 1538 1542 1545 1548 1550 1552 1555 1556
1438 1437 1433 1429 1422 1419 1417 1416 1420 1422 1421 1421 1422 1430 1433 1441 1442 1444 1449 1454 1457 1462 1466 1471 1476 1481 1486 1493 1497 1502 1507 1510 1517 1522 1526 1530 1534 1538 1540 1542 1543 1546 1546
1441 1441 1437 1431 1427 1425 1425 1423 1422 1419 1419 1417 1420 1426 1429 1430 1430 1437 1443 1443 1450 1453 1456 1460 1466 1471 1476 1480 1486 1491 1494 1499 1507 1512 1516 1520 1523 1527 1530 1532 1536 1538 1540
1443 1441 1437 1433 1431 1429 1427 1426 1423 1420 1418 1419 1422 1423 1423 1426 1428 1431 1432 1438 1438 1445 1445 1451 1455 1460 1465 1469 1474 1479 1482 1493 1496 1500 1505 1509 1512 1516 1519 1522 1524 1528 1530
1448 1443 1439 1437 1434 1432 1432 1429 1425 1422 1424 1424 1426 1426 1428 1427 1427 1426 1427 1431 1434 1434 1436 1441 1445 1447 1453 1458 1463 1468 1475 1482 1486 1487 1491 1495 1498 1503 1508 1511 1513 1516 1519
1448 1445 1442 1438 1437 1439 1435 1434 1429 1426 1428 1428 1427 1427 1427 1425 1426 1425 1424 1426 1426 1428 1430 1432 1435 1438 1443 1446 1451 1457 1463 1468 1473 1474 1474 1480 1485 1491 1496 1501 1504 1508 1509
1448 1445 1443 1442 1442 1442 1439 1437 1434 1431 1430 1430 1429 1429 1428 1427 1426 1426 1425 1424 1422 1423 1423 1425 1426 1428 1431 1435 1438 1443 1449 1453 1455 1459 1463 1468 1474 1477 1481 1485 1490 1491 1500
1447 1445 1445 1444 1442 1441 1438 1438 1437 1435 1435 1435 1435 1433 1430 1429 1427 1426 1424 1425 1423 1422 1424 1422 1422 1422 1423 1423 1427 1430 1435 1440 1444 1445 1449 1455 1462 1464 1470 1472 1477 1482 1488
1444 1443 1441 1442 1442 1440 1439 1440 1438 1437 1437 1438 1438 1436 1433 1431 1429 1427 1424 1424 1422 1423 1424 1422 1421 1421 1419 1420 1423 1423 1426 1429 1434 1435 1440 1444 1449 1455 1460 1463 1468 1475 1479
1446 1444 1443 1442 1443 1442 1439 1440 1439 1437 1437 1438 1437 1436 1434 1431 1429 1426 1425 1425 1424 1425 1423 1422 1422 1421 1422 1423 1424 1424 1424 1426 1427 1427 1430 1436 1440 1447 1451 1455 1462 1467 1469
1447 1446 1446 1444 1444 1442 1440 1439 1439 1439 1438 1438 1436 1435 1433 1431 1429 1427 1427 1427 1425 1424 1421 1422 1424 1423 1423 1425 1426 1425 1427 1429 1429 1432 1430 1432 1437 1440 1443 1448 1455 1459 1463
1444 1444 1444 1442 1443 1445 1443 1442 1440 1439 1437 1437 1437 1436 1434 1433 1431 1429 1428 1427 1426 1425 1424 1424 1425 1425 1426 1426 1427 1427 1428 1429 1429 1430 1434 1436 1436 1439 1442 1448 1452 1455 1458
1441 1442 1440 1440 1440 1441 1440 1437 1436 1437 1438 1437 1436 1435 1434 1433 1431 1430 1429 1429 1428 1427 1426 1426 1426 1426 1426 1428 1428 1428 1430 1431 1431 1433 1434 1436 1438 1440 1441 1445 1450 1453 1456
1440 1440 1440 1440 1441 1440 1438 1435 1434 1434 1433 1433 1434 1433 1432 1431 1431 1431 1430 1430 1429 1427 1427 1427 1428 1427 1427 1428 1428 1429 1430 1431 1432 1432 1434 1437 1438 1441 1443 1445 1447 1450 1454
1436 1436 1437 1437 1437 1436 1435 1433 1432 1433 1432 1430 1430 1431 1430 1430 1429 1429 1430 1430 1429 1428 1427 1427 1426 1426 1426 1427 1428 1428 1430 1431 1432 1433 1434 1435 1437 1440 1442 1443 1445 1448 1451
1431 1431 1431 1431 1431 1430 1429 1429 1429 1429 1429 1428 1429 1429 1428 1429 1428 1426 1427 1429 1429 1427 1426 1426 1426 1427 1427 1426 1427 1427 1429 1430 1431 1433 1434 1436 1437 1439 1441 1443 1444 1446 1447
1426 1426 1426 1426 1425 1425 1425 1425 1424 1425 1425 1425 1426 1428 1427 1426 1424 1424 1425 1427 1427 1425 1425 1425 1426 1426 1425 1425 1426 1427 1428 1429 1430 1432 1433 1434 1435 1438 1440 1441 1443 1445 1445
1421 1421 1421 1421 1420 1420 1421 1422 1422 1422 1422 1422 1423 1424 1423 1423 1423 1423 1422 1423 1423 1424 1424 1424 1425 1425 1425 1424 1426 1426 1427 1428 1429 1430 1432 1432 1435 1436 1439 1440 1441 1444 1444
1416 1416 1416 1416 1415 1416 1416 1417 1417 1418 1418 1419 1419 1419 1419 1419 1419 1419 1419 1420 1421 1422 1423 1424 1424 1423 1423 1424 1424 1425 1427 1427 1428 1429 1430 1431 1433 1434 1435 1437 1438 1439 1441
Wind_Speed
8 5 15 28 24 37 35 38 42 43 45 48 48 47 45 42 39 36 37 36 36 34 31 30 30 34 35 20 24 19 19 22 14 15 15 18 19 18 16 14 12 10 9
15 8 6 14 24 32 38 42 42 43 45 46 47 48 46 46 43 40 39 40 39 37 35 32 30 33 38 31 28 22 20 22 21 14 20 22 21 20 19 18 16 14 13
18 10 9 13 15 27 34 39 47 47 45 46 47 48 48 47 47 45 42 41 41 39 37 36 34 34 37 37 33 28 25 23 25 20 19 22 23 22 22 21 20 18 17
19 16 11 10 10 13 19 26 48 47 48 45 47 46 47 48 46 46 46 45 44 42 40 39 38 38 39 39 37 33 29 27 28 27 24 22 23 24 23 23 23 22 20
19 16 15 11 9 10 9 13 28 34 47 47 42 44 45 45 48 45 46 48 48 46 44 43 41 40 39 39 41 38 35 31 30 32 30 27 26 26 28 26 26 23 23
19 18 15 12 11 7 11 6 16 20 37 37 41 41 39 41 42 45 45 46 47 48 47 46 45 42 41 39 41 41 41 37 36 35 35 33 31 29 28 29 27 28 25
20 18 16 15 12 7 9 13 12 14 18 20 28 34 38 33 44 43 43 45 47 49 49 48 46 46 44 43 42 42 43 42 41 39 40 40 35 33 30 29 31 31 29
21 20 18 15 13 11 7 6 7 6 9 12 18 20 18 27 39 43 46 46 47 50 50 49 49 47 47 46 46 44 45 45 44 43 43 41 38 35 31 28 28 29 28
19 19 19 16 14 12 10 8 6 8 16 17 15 17 26 31 29 22 39 49 50 50 51 52 52 50 48 46 47 49 47 48 47 45 43 41 39 34 32 30 31 31 30
19 19 18 18 15 12 10 8 7 6 7 9 12 16 23 27 28 32 32 34 52 49 48 50 48 49 48 46 47 49 52 51 51 49 47 46 43 39 38 35 34 35 34
16 17 16 16 17 13 10 8 8 7 8 8 6 6 11 18 25 38 38 36 34 46 42 49 42 48 48 49 48 48 50 48 51 51 50 49 47 46 45 42 41 38 37
14 14 15 13 14 15 10 8 9 8 7 7 7 6 4 2 4 14 27 35 37 35 34 33 43 45 42 47 49 47 46 43 47 51 51 55 54 52 50 49 46 39 37
12 13 13 12 11 10 12 12 11 11 9 8 7 6 6 5 2 1 7 16 23 27 33 40 45 41 43 44 45 47 48 47 47 49 50 53 55 56 52 53 49 42 36
11 10 11 10 9 7 8 10 12 14 13 11 10 9 8 6 6 4 1 2 7 11 20 25 32 39 47 55 52 49 49 51 52 53 53 53 54 55 54 55 53 45 40
9 8 8 9 9 9 8 7 8 9 11 11 12 11 10 11 10 7 5 2 1 4 5 9 12 16 20 25 34 45 52 52 48 52 48 52 52 49 56 57 56 43 39
7 7 8 8 8 8 8 7 5 6 6 6 5 9 10 10 9 8 5 1 2 3 2 6 7 7 8 13 19 27 35 41 44 50 47 47 50 46 42 36 33 32 29
5 5 6 7 7 7 6 7 6 5 4 5 6 5 8 11 10 9 5 2 1 3 4 4 7 9 11 12 14 13 14 17 22 34 40 39 36 34 34 31 31 30 29
4 4 4 5 7 7 7 7 7 7 6 5 4 5 8 8 8 8 7 4 1 3 6 6 6 6 8 8 9 11 12 12 12 9 15 22 25 26 27 26 26 27 32
4 5 6 6 6 7 7 7 7 7 7 7 6 5 6 6 7 7 5 4 3 1 2 4 5 5 5 5 5 5 6 7 10 12 14 12 14 16 17 19 21 22 21
7 7 7 8 8 9 9 9 9 8 8 7 7 6 8 6 5 5 4 4 2 1 1 1 1 2 3 3 3 4 4 5 6 7 7 9 11 12 13 14 14 14 15
9 9 10 10 10 11 10 9 9 10 9 10 9 6 6 7 5 5 4 3 3 2 1 3 3 3 3 2 3 3 4 3 4 4 5 6 7 8 9 10 11 12 13
13 12 12 12 13 12 12 12 10 11 11 10 10 9 9 8 6 5 4 4 3 2 2 1 1 2 4 4 4 3 3 4 3 3 4 4 5 6 7 8 9 10 10
16 15 15 15 15 15 14 13 13 13 13 11 12 11 11 10 8 6 6 5 5 3 3 2 2 2 1 2 2 3 4 4 4 4 4 4 5 5 6 7 7 8 9
18 18 18 18 18 17 17 15 14 14 11 11 11 11 11 11 9 8 7 7 7 5 4 4 4 4 2 2 2 3 3 3 3 4 4 5 5 6 7 7 8 8 8
22 22 20 19 18 17 15 14 13 13 13 12 11 11 11 12 11 11 10 9 8 8 7 6 5 4 4 3 4 3 4 5 5 6 5 5 6 6 7 7 7 8 8
18 20 21 19 18 17 16 14 14 14 14 13 13 14 13 12 13 14 13 12 11 10 10 8 7 6 5 5 4 5 5 6 6 7 6 7 7 7 7 7 7 8 8
Wind_Direction
51 108 184 224 224 201 197 205 212 218 218 214 210 211 212 212 215 217 219 220 222 224 225 227 225 221 222 230 214 220 224 218 220 219 212 214 213 210 214 218 224 232 242
49 71 130 159 193 200 199 211 216 219 221 221 217 216 216 215 216 219 221 222 224 225 227 228 227 223 222 227 221 225 224 218 221 225 219 215 217 219 222 227 231 237 245
41 45 101 133 162 196 200 201 209 219 216 221 221 220 221 221 219 222 225 226 226 226 229 230 228 226 224 225 227 229 223 224 220 223 224 220 221 221 225 228 232 239 246
17 30 73 102 131 164 194 196 203 204 217 214 220 223 223 225 227 227 228 229 230 229 230 232 232 230 229 227 227 228 224 226 223 222 230 232 229 227 228 232 236 240 247
9 30 44 81 116 146 163 192 196 198 204 207 213 219 226 227 229 231 231 232 233 233 233 233 233 233 232 230 229 228 225 226 226 225 230 229 228 230 232 238 240 245 247
16 15 36 51 84 109 165 207 179 204 209 198 207 212 218 230 232 233 234 234 235 235 234 234 233 234 234 233 234 233 232 229 231 231 231 233 236 239 240 241 246 242 245
19 19 25 44 55 81 119 147 167 181 188 192 201 209 210 208 226 231 235 236 238 240 239 238 237 236 234 233 234 234 237 237 238 241 238 240 242 245 250 248 246 249 248
23 25 24 25 46 63 78 136 183 209 243 203 197 208 229 244 226 230 233 233 237 241 242 243 243 240 237 234 234 234 234 236 236 239 243 247 249 253 255 259 260 258 254
19 26 30 22 33 48 59 86 123 159 193 204 214 234 223 248 256 249 240 235 237 236 239 244 244 246 244 239 238 237 236 237 237 239 241 242 245 246 251 247 240 239 240
16 15 27 33 31 39 55 75 82 101 136 163 186 193 204 216 225 245 259 242 230 238 237 238 242 245 245 246 242 242 240 238 238 238 237 238 239 242 243 244 241 238 239
14 11 17 34 37 35 42 61 79 88 99 117 147 194 208 221 232 226 235 246 252 228 228 237 245 246 244 245 244 243 245 244 241 241 242 240 242 242 239 238 240 243 241
15 15 17 24 39 43 42 48 68 76 92 106 107 109 134 178 224 239 236 230 230 237 240 230 232 240 248 247 246 246 246 247 245 244 244 244 243 242 240 239 241 242 247
11 17 18 22 24 36 51 55 62 60 59 64 70 68 65 77 72 122 226 232 232 236 234 237 243 246 246 247 243 251 248 243 240 241 242 245 248 248 245 237 235 232 237
354 10 15 24 26 18 38 52 56 56 45 35 33 33 25 25 37 42 96 185 207 224 235 239 241 247 248 242 249 236 243 246 237 241 242 250 253 245 246 244 228 222 230
340 354 6 13 25 28 29 22 40 51 43 30 28 13 9 3 4 8 23 25 179 163 205 228 248 246 240 231 231 229 227 235 239 234 256 236 238 242 240 241 228 219 225
341 346 354 1 10 24 27 22 16 357 346 348 4 24 358 349 342 334 337 61 114 152 188 165 161 162 193 210 222 228 237 239 234 234 232 243 233 228 219 208 208 218 227
327 343 351 353 350 358 14 9 11 14 359 343 335 348 347 345 353 2 343 326 171 180 206 145 129 130 129 136 141 146 162 179 191 198 200 194 199 210 209 213 221 229 230
302 330 343 347 342 347 351 348 351 355 4 2 351 333 338 350 343 355 358 348 240 156 130 135 146 147 144 145 140 139 140 145 149 159 163 174 179 187 196 199 207 215 222
286 311 321 337 337 329 334 333 333 334 338 344 350 344 346 350 354 358 2 10 21 63 125 135 142 152 159 167 168 162 161 167 169 173 189 190 190 193 193 195 196 196 198
273 290 304 315 318 317 318 322 323 319 319 324 329 337 348 354 357 13 20 28 15 348 16 334 206 185 183 199 199 191 186 183 179 182 185 186 190 194 196 202 210 217 219
259 277 286 291 293 300 307 310 309 308 309 312 311 312 336 338 351 357 6 12 19 30 329 285 281 283 273 252 240 239 235 229 217 207 209 215 219 223 221 223 228 232 238
261 270 275 280 286 290 294 296 294 293 295 298 296 295 294 308 312 321 324 326 333 334 348 348 314 280 281 281 273 257 249 245 244 240 231 223 222 222 225 226 228 231 236
260 268 274 279 282 285 287 285 288 289 286 281 282 282 282 285 287 292 292 294 296 301 304 299 295 279 239 220 244 262 264 258 248 239 232 228 227 230 230 230 231 234 237
260 263 269 276 277 280 282 280 280 280 277 275 269 269 270 271 274 275 272 276 284 287 286 288 286 280 272 249 233 225 225 228 225 227 226 227 229 235 236 239 242 244 244
249 260 265 269 272 270 263 260 264 270 272 268 263 264 267 263 261 262 264 265 272 278 278 275 272 272 270 269 262 248 234 229 227 226 227 229 233 235 242 247 249 248 248
256 261 266 266 265 265 261 259 260 264 266 267 268 268 265 263 259 255 254 258 263 264 263 262 264 266 267 263 262 261 255 250 249 250 250 241 241 242 243 245 246 247 253